K6GMW Weather Reports


time (UTC)temp
C
wind
direction
speed
KPH
gust
KPH
rain 1hr
cm
rain 24hr
cm
rain mn
cm
humidity
%
barometer
mb
20260506160917 15 264 4.8 11.3 0.00 0.10 0.10 89 1015.5
20260506160414 15 308 4.8 8.0 0.00 0.10 0.10 89 1015.2
20260506155912 15 359 6.4 14.5 0.00 0.10 0.10 89 1015.0
20260506155409 15 347 11.3 16.1 0.00 0.10 0.10 88 1015.0
20260506153531 15 330 6.4 11.3 0.00 0.10 0.10 87 1014.3
20260506153028 15 317 14.5 16.1 0.00 0.10 0.10 87 1014.4
20260506152525 15 344 8.0 11.3 0.00 0.10 0.10 86 1014.5
20260506152023 15 276 8.0 9.7 0.00 0.10 0.10 86 1014.4
20260506151520 15 304 9.7 14.5 0.00 0.10 0.10 85 1014.4
20260506151018 15 287 11.3 14.5 0.00 0.10 0.10 85 1014.5
20260506150514 15 293 4.8 9.7 0.00 0.10 0.10 85 1014.4
20260506150011 15 272 8.0 11.3 0.00 0.10 0.10 86 1014.2
20260506145507 15 315 12.9 17.7 0.00 0.10 0.10 85 1014.0
20260506145005 15 308 8.0 14.5 0.00 0.10 0.10 85 1013.8
20260506144501 15 308 4.8 9.7 0.00 0.10 0.10 85 1013.9
20260506143959 15 318 9.7 9.7 0.00 0.10 0.10 84 1014.0
20260506143456 15 321 11.3 14.5 0.00 0.10 0.10 83 1014.0
20260506142955 15 305 6.4 9.7 0.00 0.10 0.10 83 1013.9
20260506142452 15 311 6.4 14.5 0.00 0.10 0.10 83 1014.0
20260506141950 15 266 6.4 9.7 0.00 0.10 0.10 84 1013.8
20260506141448 15 331 8.0 12.9 0.00 0.10 0.10 83 1013.6
20260506140946 15 325 8.0 17.7 0.00 0.10 0.10 84 1013.7
20260506140443 15 320 12.9 14.5 0.00 0.10 0.10 84 1013.5
20260506135939 15 265 12.9 20.9 0.00 0.10 0.10 84 1013.6
20260506135437 15 330 12.9 14.5 0.00 0.10 0.10 84 1013.6
20260506134932 15 305 9.7 17.7 0.00 0.10 0.10 84 1013.4
20260506134429 15 351 6.4 19.3 0.00 0.10 0.10 84 1013.4
20260506133926 15 3 12.9 19.3 0.00 0.10 0.10 83 1013.4
20260506133423 15 328 6.4 14.5 0.00 0.10 0.10 84 1013.4
20260506132920 15 345 12.9 19.3 0.00 0.10 0.10 83 1013.6
20260506132417 15 0 9.7 19.3 0.00 0.10 0.10 84 1013.2
20260506131914 15 329 4.8 11.3 0.00 0.10 0.10 85 1013.0
20260506131410 15 330 9.7 22.5 0.00 0.10 0.10 85 1013.4
20260506130908 15 286 12.9 17.7 0.00 0.10 0.10 85 1013.2
20260506130404 15 342 11.3 17.7 0.00 0.10 0.10 85 1013.0
20260506125902 15 309 9.7 17.7 0.00 0.10 0.10 85 1012.9
20260506125400 15 1 9.7 16.1 0.00 0.10 0.10 85 1013.0
20260506124858 15 331 12.9 14.5 0.00 0.10 0.10 86 1012.9
20260506124355 15 343 8.0 16.1 0.00 0.10 0.10 86 1012.5
20260506123853 15 292 9.7 14.5 0.00 0.10 0.10 86 1012.5
20260506123351 16 298 16.1 17.7 0.00 0.10 0.10 86 1012.4
20260506122848 16 319 9.7 11.3 0.00 0.10 0.10 86 1012.5
20260506122344 16 276 9.7 14.5 0.00 0.10 0.10 85 1012.0
20260506121843 16 265 6.4 9.7 0.00 0.10 0.10 86 1012.2
20260506121340 16 333 4.8 11.3 0.00 0.10 0.10 86 1011.9
20260506120837 16 268 6.4 8.0 0.00 0.10 0.10 85 1012.0
20260506120334 16 290 4.8 8.0 0.00 0.10 0.10 85 1012.0
20260506115831 16 266 4.8 4.8 0.61 0.10 0.10 84 1011.8
20260506115330 16 293 3.2 6.4 0.61 0.10 0.10 84 1011.7
20260506114827 16 322 3.2 6.4 0.00 0.00 0.00 84 1011.6
20260506114325 16 317 3.2 11.3 0.00 0.00 0.00 84 1011.8
20260506113823 16 324 4.8 9.7 0.00 0.00 0.00 84 1011.5
20260506113320 16 277 6.4 8.0 0.00 0.00 0.00 84 1011.4
20260506112817 16 321 4.8 9.7 0.00 0.00 0.00 84 1011.1
20260506112314 16 307 4.8 9.7 0.00 0.00 0.00 84 1011.2
20260506111811 16 284 6.4 9.7 0.00 0.00 0.00 84 1011.1
20260506111309 16 329 4.8 9.7 0.00 0.00 0.00 84 1010.9
20260506110807 16 279 0.0 3.2 0.00 0.00 0.00 85 1011.0
20260506110304 16 358 1.6 6.4 0.00 0.00 0.00 84 1010.8
20260506105800 16 353 3.2 4.8 0.00 0.00 0.00 84 1010.7
20260506105257 16 333 4.8 4.8 0.00 0.00 0.00 84 1010.8
20260506104755 16 330 4.8 9.7 0.00 0.00 0.00 84 1010.6
20260506104252 16 332 4.8 9.7 0.00 0.00 0.00 84 1010.7
20260506103749 16 348 3.2 9.7 0.00 0.00 0.00 85 1010.7
20260506103247 16 334 3.2 6.4 0.00 0.00 0.00 86 1010.8
20260506102744 16 339 6.4 14.5 0.00 0.00 0.00 85 1010.7
20260506102242 16 312 6.4 14.5 0.00 0.00 0.00 84 1010.5
20260506101739 16 355 11.3 16.1 0.00 0.00 0.00 83 1010.6
20260506101235 17 322 9.7 9.7 0.00 0.00 0.00 84 1010.5
20260506100733 17 317 9.7 12.9 0.00 0.00 0.00 84 1010.3
20260506100231 17 3 4.8 6.4 0.00 0.00 0.00 85 1010.2
20260506095730 17 298 6.4 8.0 0.00 0.00 0.00 85 1010.2
20260506095226 17 298 8.0 11.3 0.00 0.00 0.00 84 1010.1
20260506094723 17 314 9.7 14.5 0.00 0.00 0.00 84 1010.1
20260506094221 17 304 9.7 17.7 0.00 0.00 0.00 83 1009.8
20260506093720 18 280 9.7 11.3 0.00 0.00 0.00 83 1010.2
20260506093216 18 254 6.4 6.4 0.00 0.00 0.00 84 1010.0
20260506092714 18 320 6.4 12.9 0.00 0.00 0.00 83 1010.0
20260506092211 18 311 14.5 16.1 0.00 0.00 0.00 82 1009.7
20260506091709 18 278 9.7 11.3 0.00 0.00 0.00 82 1009.7
20260506091206 18 280 14.5 17.7 0.00 0.00 0.00 81 1009.7
20260506090704 18 289 14.5 16.1 0.00 0.00 0.00 81 1009.5
20260506090200 19 296 9.7 20.9 0.00 0.00 0.00 80 1009.8
20260506085657 20 318 11.3 16.1 0.00 0.00 0.00 81 1009.7
20260506085153 20 308 12.9 14.5 0.00 0.00 0.00 81 1009.6
20260506084650 20 296 8.0 17.7 0.00 0.00 0.00 81 1009.4
20260506084147 20 294 19.3 19.3 0.00 0.00 0.00 81 1009.5
20260506083644 21 331 8.0 16.1 0.00 0.00 0.00 81 1009.5
20260506083142 21 16 6.4 12.9 0.00 0.00 0.00 82 1009.3
20260506082638 21 302 17.7 20.9 0.00 0.00 0.00 83 1009.2
20260506082134 22 303 9.7 17.7 0.00 0.00 0.00 83 1009.3
20260506081632 23 229 8.0 14.5 0.00 0.00 0.00 90 1009.2
20260506081129 23 213 12.9 16.1 0.00 0.00 0.00 90 1009.0
20260506080627 23 201 9.7 11.3 0.00 0.00 0.00 90 1008.9
20260506080123 23 192 8.0 11.3 0.00 0.00 0.00 90 1009.0
20260506073107 23 195 9.7 14.5 0.00 0.00 0.00 90 1008.8
20260506072604 23 188 9.7 9.7 0.00 0.00 0.00 90 1008.9
20260506072102 23 177 8.0 9.7 0.00 0.00 0.00 90 1008.8
20260506071559 23 170 9.7 11.3 0.00 0.00 0.00 90 1008.8
20260506071056 23 200 8.0 11.3 0.00 0.00 0.00 90 1009.0
20260506070553 23 194 6.4 9.7 0.00 0.00 0.00 90 1008.9
20260506062033 23 171 4.8 8.0 0.00 0.00 0.00 89 1009.1
20260506061529 23 160 4.8 12.9 0.00 0.00 0.00 89 1009.1
20260506061027 23 144 6.4 11.3 0.00 0.00 0.00 89 1009.1
20260506060525 23 167 9.7 9.7 0.00 0.00 0.00 89 1009.5
20260506050954 24 166 6.4 6.4 0.00 0.00 0.00 87 1008.9
20260506050452 24 176 3.2 6.4 0.00 0.00 0.00 87 1008.8
20260506044942 24 170 4.8 9.7 0.00 0.00 0.00 85 1009.0
20260506044440 24 170 4.8 6.4 0.00 0.00 0.00 85 1008.9
20260506043937 25 174 6.4 8.0 0.00 0.00 0.00 84 1008.8
20260506043434 25 189 3.2 6.4 0.00 0.00 0.00 84 1008.9
20260506042932 25 192 4.8 9.7 0.00 0.00 0.00 84 1009.0
20260506042431 25 192 6.4 6.4 0.00 0.00 0.00 84 1008.7
20260506041929 25 184 6.4 6.4 0.00 0.00 0.00 83 1008.7
20260506041426 25 188 4.8 6.4 0.00 0.00 0.00 82 1008.4
20260506040923 25 189 6.4 8.0 0.00 0.00 0.00 82 1008.4
20260506040421 25 176 4.8 8.0 0.00 0.00 0.00 82 1008.6
20260506035916 25 191 8.0 11.3 0.00 0.00 0.00 82 1008.3
20260506035415 25 199 6.4 14.5 0.00 0.00 0.00 82 1008.3
20260506034911 25 191 12.9 16.1 0.00 0.00 0.00 82 1008.1
20260506034408 25 155 6.4 8.0 0.00 0.00 0.00 83 1007.9
20260506033905 25 171 4.8 16.1 0.00 0.00 0.00 83 1007.6
20260506033402 25 163 6.4 8.0 0.00 0.00 0.00 83 1007.8
20260506032859 25 176 4.8 6.4 0.00 0.00 0.00 82 1007.6
20260506032356 25 137 8.0 9.7 0.00 0.00 0.00 83 1007.5
20260506031853 25 153 6.4 9.7 0.00 0.00 0.00 83 1007.6
20260506031350 25 170 3.2 6.4 0.00 0.00 0.00 83 1007.6
20260506030848 25 165 6.4 8.0 0.00 0.00 0.00 82 1007.6
20260506030346 25 173 4.8 6.4 0.00 0.00 0.00 82 1007.5
20260506025842 25 157 6.4 12.9 0.00 0.00 0.00 82 1007.5
20260506025338 25 170 6.4 9.7 0.00 0.00 0.00 82 1007.6
20260506024835 25 137 6.4 6.4 0.00 0.00 0.00 82 1007.4
20260506024332 25 188 3.2 9.7 0.00 0.00 0.00 81 1007.6
20260506023829 25 184 4.8 9.7 0.00 0.00 0.00 81 1007.4
20260506023325 25 181 4.8 9.7 0.00 0.00 0.00 81 1007.0
20260506022822 25 160 4.8 11.3 0.00 0.00 0.00 81 1006.9
20260506022320 25 132 6.4 9.7 0.00 0.00 0.00 81 1006.8
20260506021818 25 149 6.4 9.7 0.00 0.00 0.00 81 1007.1
20260506021314 25 168 3.2 4.8 0.00 0.00 0.00 81 1007.2
20260506020811 25 170 4.8 6.4 0.00 0.00 0.00 79 1007.6
20260506020309 26 176 6.4 8.0 0.00 0.00 0.00 78 1007.5
20260506015807 26 204 4.8 4.8 0.00 0.00 0.00 78 1007.6
20260506015306 26 200 4.8 8.0 0.00 0.00 0.00 78 1007.4
20260506014800 26 209 6.4 8.0 0.00 0.00 0.00 78 1007.3
20260506014257 25 205 9.7 9.7 0.00 0.00 0.00 79 1007.3
20260506013754 25 190 3.2 6.4 0.00 0.00 0.00 79 1007.0
20260506013251 26 174 4.8 6.4 0.00 0.00 0.00 78 1007.1
20260506012748 26 185 8.0 9.7 0.00 0.00 0.00 77 1007.1
20260506012245 26 202 6.4 6.4 0.00 0.00 0.00 77 1007.1
20260506011742 26 179 3.2 9.7 0.00 0.00 0.00 76 1007.1
20260506011238 26 184 4.8 6.4 0.00 0.00 0.00 76 1007.0
20260506010737 26 169 6.4 8.0 0.00 0.00 0.00 75 1007.1
20260506010233 26 225 1.6 4.8 0.00 0.00 0.00 74 1007.0
20260506005731 26 206 6.4 6.4 0.00 0.00 0.00 74 1007.0
20260506005227 27 197 4.8 6.4 0.00 0.00 0.00 74 1006.8
20260506004723 27 181 3.2 6.4 0.00 0.00 0.00 74 1006.6
20260506004221 27 194 6.4 8.0 0.00 0.00 0.00 73 1006.4
20260506003717 27 187 4.8 9.7 0.00 0.00 0.00 72 1006.4
20260506003214 27 189 4.8 8.0 0.00 0.00 0.00 72 1006.2
20260506002709 27 229 4.8 6.4 0.00 0.00 0.00 71 1006.6
20260506002206 27 172 6.4 11.3 0.00 0.00 0.00 71 1006.1
20260506001701 27 177 3.2 11.3 0.00 0.00 0.00 70 1006.4
20260506001159 27 210 9.7 14.5 0.00 0.00 0.00 70 1006.3
20260506000656 27 187 6.4 11.3 0.00 0.00 0.00 70 1006.3
20260506000154 27 203 9.7 17.7 0.00 0.00 0.00 70 1006.3
20260505235651 28 198 11.3 16.1 0.00 0.00 0.00 69 1006.4
20260505235149 28 169 9.7 17.7 0.00 0.00 0.00 69 1006.2
20260505234645 28 174 9.7 17.7 0.00 0.00 0.00 69 1006.2
20260505234142 28 186 6.4 11.3 0.00 0.00 0.00 69 1006.1
20260505233639 28 186 8.0 11.3 0.00 0.00 0.00 68 1006.2
20260505233137 28 163 6.4 8.0 0.00 0.00 0.00 69 1006.4
20260505232634 28 184 4.8 11.3 0.00 0.00 0.00 67 1006.4
20260505232132 28 241 12.9 16.1 0.00 0.00 0.00 67 1006.3
20260505231628 28 231 12.9 16.1 0.00 0.00 0.00 66 1006.1
20260505231127 28 197 6.4 16.1 0.00 0.00 0.00 66 1006.1
20260505230625 29 215 8.0 19.3 0.00 0.00 0.00 65 1006.0
20260505230120 30 225 6.4 14.5 0.00 0.00 0.00 65 1006.1
20260505225617 30 199 6.4 14.5 0.00 0.00 0.00 65 1005.9
20260505225114 30 210 8.0 11.3 0.00 0.00 0.00 64 1006.1
20260505224610 30 194 6.4 11.3 0.00 0.00 0.00 65 1006.1
20260505224108 29 213 9.7 16.1 0.00 0.00 0.00 65 1005.9
20260505223605 29 173 9.7 12.9 0.00 0.00 0.00 65 1006.1
20260505223101 28 229 11.3 14.5 0.00 0.00 0.00 66 1006.1
20260505222557 28 243 12.9 19.3 0.00 0.00 0.00 67 1005.9
20260505222054 28 200 9.7 24.1 0.00 0.00 0.00 66 1005.8
20260505221551 28 190 8.0 17.7 0.00 0.00 0.00 66 1005.8
20260505221047 28 217 9.7 16.1 0.00 0.00 0.00 67 1005.9
20260505220545 28 179 16.1 25.7 0.00 0.00 0.00 66 1006.1
20260505220042 28 178 9.7 20.9 0.00 0.00 0.00 66 1005.9
20260505215540 29 171 12.9 20.9 0.00 0.00 0.00 66 1006.1
20260505215038 29 192 17.7 24.1 0.00 0.00 0.00 65 1006.1
20260505214536 29 185 17.7 24.1 0.00 0.00 0.00 65 1006.1
20260505214032 29 196 11.3 17.7 0.00 0.00 0.00 65 1006.3
20260505213530 28 185 4.8 20.9 0.00 0.00 0.00 67 1006.2
20260505213026 28 153 9.7 22.5 0.00 0.00 0.00 69 1006.3
20260505212523 28 198 8.0 16.1 0.00 0.00 0.00 69 1006.3
20260505212020 28 219 4.8 20.9 0.00 0.00 0.00 68 1006.5
20260505211517 28 190 12.9 19.3 0.00 0.00 0.00 66 1006.4
20260505211014 28 182 9.7 16.1 0.00 0.00 0.00 68 1006.4
20260505210510 28 211 17.7 24.1 0.00 0.00 0.00 67 1006.5
20260505210007 28 176 12.9 19.3 0.00 0.00 0.00 67 1006.6
20260505205506 28 164 11.3 24.1 0.00 0.00 0.00 67 1006.5
20260505205002 28 178 12.9 19.3 0.00 0.00 0.00 68 1006.7
20260505204500 27 214 9.7 30.6 0.00 0.00 0.00 68 1006.7
20260505203957 27 179 11.3 29.0 0.00 0.00 0.00 69 1006.6
20260505203453 27 193 11.3 24.1 0.00 0.00 0.00 68 1006.8
20260505202950 27 198 11.3 22.5 0.00 0.00 0.00 68 1006.9
20260505202447 27 168 4.8 22.5 0.00 0.00 0.00 68 1006.7
20260505201942 27 170 20.9 30.6 0.00 0.00 0.00 68 1006.7
20260505201440 27 223 8.0 20.9 0.00 0.00 0.00 68 1006.9
20260505200938 27 175 12.9 38.6 0.00 0.00 0.00 69 1006.8
20260505200435 27 176 17.7 27.4 0.00 0.00 0.00 68 1006.9
20260505195930 28 193 9.7 19.3 0.00 0.00 0.00 67 1007.0
20260505195428 27 180 14.5 24.1 0.00 0.00 0.00 69 1007.2
20260505194925 27 212 19.3 24.1 0.00 0.00 0.00 68 1007.1
20260505194423 27 170 12.9 20.9 0.00 0.00 0.00 69 1007.1
20260505193922 27 184 11.3 22.5 0.00 0.00 0.00 69 1007.1
20260505193420 27 175 8.0 20.9 0.00 0.00 0.00 69 1007.1
20260505192918 27 184 14.5 20.9 0.00 0.00 0.00 67 1007.1
20260505192416 27 208 12.9 12.9 0.00 0.00 0.00 69 1007.2
20260505191913 27 219 9.7 24.1 0.00 0.00 0.00 69 1007.1
20260505191412 27 202 14.5 17.7 0.00 0.00 0.00 69 1007.1
20260505190908 27 165 14.5 20.9 0.00 0.00 0.00 69 1007.1
20260505190404 27 205 9.7 24.1 0.00 0.00 0.00 70 1007.3
20260505185859 27 184 14.5 25.7 0.00 0.00 0.00 68 1007.2
20260505185356 27 179 4.8 24.1 0.00 0.00 0.00 68 1007.4
20260505184852 27 184 11.3 20.9 0.00 0.00 0.00 69 1007.2
20260505184349 27 192 14.5 25.7 0.00 0.00 0.00 67 1007.3
20260505183846 27 176 17.7 22.5 0.00 0.00 0.00 67 1007.4
20260505183343 27 175 6.4 17.7 0.00 0.00 0.00 72 1007.4
20260505182840 27 196 14.5 22.5 0.00 0.00 0.00 69 1007.6
20260505182336 27 160 6.4 14.5 0.00 0.00 0.00 71 1007.6
20260505181833 27 187 11.3 25.7 0.00 0.00 0.00 69 1007.7
20260505181331 27 188 11.3 22.5 0.00 0.00 0.00 70 1007.5
20260505180827 27 202 11.3 27.4 0.00 0.00 0.00 69 1007.6
20260505180324 27 193 11.3 25.7 0.00 0.00 0.00 71 1007.7
20260505175820 26 221 22.5 27.4 0.00 0.00 0.00 70 1007.6
20260505175317 26 195 9.7 30.6 0.00 0.00 0.00 71 1007.7
20260505174813 26 161 9.7 22.5 0.00 0.00 0.00 72 1007.8
20260505174311 26 178 12.9 24.1 0.00 0.00 0.00 72 1007.7
20260505173806 26 179 25.7 32.2 0.00 0.00 0.00 72 1007.6
20260505173303 26 196 11.3 19.3 0.00 0.00 0.00 75 1007.7
20260505172800 26 226 16.1 24.1 0.00 0.00 0.00 73 1007.7
20260505172257 26 185 20.9 25.7 0.00 0.00 0.00 74 1007.8
20260505171752 26 179 6.4 27.4 0.00 0.00 0.00 74 1007.7
20260505171249 25 215 16.1 27.4 0.00 0.00 0.00 74 1007.6
20260505170746 25 178 17.7 24.1 0.00 0.00 0.00 75 1007.7
20260505170243 25 234 16.1 24.1 0.00 0.00 0.00 76 1007.9
20260505165738 25 201 11.3 24.1 0.00 0.00 0.00 76 1007.9
20260505165234 25 200 9.7 25.7 0.00 0.00 0.00 75 1007.8
20260505164730 25 207 9.7 19.3 0.00 0.00 0.00 77 1007.9
20260505164227 24 172 8.0 16.1 0.00 0.00 0.00 78 1007.9
20260505163725 24 197 9.7 17.7 0.00 0.00 0.00 78 1008.2
20260505163223 23 197 8.0 16.1 0.00 0.00 0.00 78 1008.2
20260505162720 23 164 16.1 16.1 0.00 0.00 0.00 79 1008.2
20260505162217 23 177 8.0 24.1 0.00 0.00 0.00 78 1008.2
20260505161714 23 204 14.5 20.9 0.00 0.00 0.00 79 1008.1